Date,TemperatureHighF,TemperatureAvgF,TemperatureLowF,DewpointHighF,DewpointAvgF,DewpointLowF,HumidityHigh,HumidityAvg,HumidityLow,PressureMaxIn,PressureMinIn,WindSpeedMaxMPH,WindSpeedAvgMPH,GustSpeedMaxMPH,PrecipitationSumIn
2013-10-1,79.0,64.9,52.2,63.7,57.3,49.1,90,77,53,29.85,29.65,19,4,19,0.00
2013-10-2,71.8,60.6,50.7,61.5,47.8,38.7,94,66,31,30.03,29.76,11,1,14,0.00
2013-10-3,63.7,54.3,46.8,56.3,50.3,43.3,95,86,62,30.03,29.89,18,2,18,0.14
2013-10-4,57.0,55.8,55.0,55.6,54.6,53.8,97,96,92,30.09,29.91,14,3,14,0.35
2013-10-5,55.8,53.7,50.4,54.1,52.1,49.1,99,94,85,30.10,29.89,18,5,20,0.66
2013-10-6,67.6,58.1,51.6,67.6,57.7,51.1,100,99,94,29.91,29.55,16,2,18,1.51
2013-10-7,56.1,50.8,42.3,52.5,48.2,41.5,99,91,73,30.01,29.49,15,2,15,1.51
2013-10-8,68.5,52.7,36.3,50.7,44.7,35.6,99,77,49,30.18,30.01,11,2,12,0.01
2013-10-9,74.5,60.3,52.2,55.9,51.0,47.1,98,73,46,30.20,30.12,14,2,14,0.00
2013-10-10,72.1,54.9,42.3,52.5,47.9,41.5,99,80,41,30.18,30.08,15,2,15,0.00
2013-10-11,70.7,54.7,44.2,55.2,49.3,43.7,99,84,48,30.14,30.03,15,2,15,0.01
2013-10-12,79.3,61.4,45.0,59.9,50.5,43.3,97,71,39,30.04,29.88,14,2,14,0.00
2013-10-13,63.9,53.9,41.2,60.1,47.8,39.2,94,80,68,30.35,29.95,16,1,16,0.00
2013-10-14,59.4,47.0,35.4,45.9,39.9,34.7,99,79,49,30.42,30.27,8,1,8,0.00
2013-10-15,59.4,48.0,36.0,55.0,45.0,34.7,98,90,68,30.27,29.68,16,1,16,0.18
2013-10-16,55.8,52.1,47.7,55.2,50.6,46.0,99,95,86,29.79,29.61,16,2,20,0.13
2013-10-17,53.8,46.4,39.4,46.2,43.1,38.8,99,89,62,29.82,29.70,7,0,8,0.05
2013-10-18,54.0,45.0,36.3,49.6,43.6,35.8,99,95,77,29.77,29.70,14,1,14,0.09
2013-10-19,51.3,43.6,38.5,45.5,41.1,35.2,99,91,58,29.77,29.63,8,1,8,0.20
2013-10-20,53.2,44.3,37.0,43.7,39.8,35.8,99,85,61,29.78,29.68,13,2,14,0.20
2013-10-21,48.2,42.8,33.6,47.7,41.7,32.9,98,96,89,29.71,29.57,19,2,21,0.77
2013-10-22,47.1,38.0,31.8,39.9,34.8,30.7,99,89,65,29.83,29.60,18,2,18,0.32
2013-10-23,45.9,36.1,29.5,37.9,32.9,28.2,96,89,56,29.83,29.76,11,1,11,0.05
2013-10-24,46.2,39.1,33.3,38.5,35.7,32.5,97,88,70,30.08,29.80,9,1,9,0.02
2013-10-25,47.5,38.6,30.7,39.9,33.3,30.2,99,83,56,30.18,29.74,25,3,27,0.04
2013-10-26,46.8,41.8,36.5,42.1,38.5,34.0,97,88,72,29.89,29.50,28,4,28,0.41
2013-10-27,46.8,39.6,31.5,39.7,36.0,30.4,98,87,69,29.95,29.82,16,2,16,0.03
2013-10-28,43.3,34.7,27.1,37.6,28.1,23.0,90,77,58,30.46,29.95,13,2,13,0.00
2013-10-29,39.6,32.1,24.1,33.1,27.3,22.3,96,83,62,30.48,30.22,8,0,8,0.00
2013-10-30,50.0,41.8,34.5,44.8,39.1,32.9,98,91,77,30.23,29.83,7,1,7,0.02
2013-10-31,57.7,52.8,47.7,57.7,52.1,44.6,100,98,83,29.84,28.97,7,1,7,0.43